This is the latest recevied weather packets stored in our database for station/object KE5VT. If no packets are shown the sender has not sent any weather packets the latest 10 day(s).
| Time | Temp. | Humidity | Pressure | Rain* | Wind** | Luminosity | Snow |
|---|---|---|---|---|---|---|---|
| 1777719706 | 12.22° C | 99% | 1007.6 hPa | 0 mm | - | 7 W/m² | - |
| 1777719403 | 12.22° C | 99% | 1007.6 hPa | 0 mm | - | 4 W/m² | - |
| 1777719100 | 12.78° C | 99% | 1007.5 hPa | 0 mm | - | 3 W/m² | - |
| 1777718797 | 12.22° C | 99% | 1007.6 hPa | 0 mm | - | 2 W/m² | - |
| 1777718495 | 12.78° C | 99% | 1007.7 hPa | 0 mm | - | 1 W/m² | - |
| 1777718192 | 12.78° C | 98% | 1007.8 hPa | 1.27 mm | - | 1 W/m² | - |
| 1777717890 | 12.22° C | 98% | 1008.1 hPa | 1.27 mm | - | 0 W/m² | - |
| 1777717587 | 12.22° C | 98% | 1008 hPa | 0 mm | - | 0 W/m² | - |
| 1777717284 | 12.78° C | 98% | 1008.1 hPa | 0 mm | - | 0 W/m² | - |
| 1777716982 | 12.78° C | 98% | 1008 hPa | 0 mm | - | 0 W/m² | - |
| 1777716680 | 12.78° C | 98% | 1008.2 hPa | 1.78 mm | - | 0 W/m² | - |
| 1777716378 | 12.78° C | 97% | 1008.2 hPa | 1.78 mm | - | 0 W/m² | - |
| 1777716076 | 12.78° C | 97% | 1008.3 hPa | 1.27 mm | - | 0 W/m² | - |
| 1777715774 | 12.78° C | 97% | 1008.2 hPa | 1.27 mm | - | 0 W/m² | - |
| 1777715471 | 12.78° C | 96% | 1008.6 hPa | 1.27 mm | - | 0 W/m² | - |
| 1777715168 | 12.78° C | 96% | 1008.4 hPa | 1.78 mm | - | 0 W/m² | - |
| 1777714867 | 12.78° C | 95% | 1008.5 hPa | 1.78 mm | - | 0 W/m² | - |
| 1777714564 | 12.78° C | 95% | 1008.4 hPa | 0 mm | - | 0 W/m² | - |
| 1777714261 | 12.78° C | 95% | 1008.4 hPa | 0 mm | - | 0 W/m² | - |
| 1777713959 | 12.78° C | 95% | 1008.4 hPa | 1.27 mm | - | 0 W/m² | - |
| 1777713656 | 12.78° C | 94% | 1008.2 hPa | 1.27 mm | - | 0 W/m² | - |
| 1777713353 | 12.78° C | 94% | 1008.4 hPa | 0 mm | - | 0 W/m² | - |
| 1777713050 | 12.78° C | 93% | 1008.4 hPa | 0 mm | - | 0 W/m² | - |
| 1777712747 | 12.78° C | 93% | 1008.6 hPa | 0 mm | - | 0 W/m² | - |
| 1777712444 | 12.78° C | 92% | 1008.6 hPa | 0 mm | - | 0 W/m² | - |
* Rain latest hour (hover to see other rain measurements)
** Current wind speed in m/s (hover to see current wind gust speed)